Indianapolis, IN

3:16 PM EST on February 19, 2017 (GMT -0500)
Indianapolis International

Weather History for KIND - January, 2014

Change the Weather History Date:

Wednesday, January 1, 2014

  Actual Average Record
Temperature  
Mean Temperature 31 °F 28 °F  
Max Temperature 41 °F 36 °F 69 °F (1876)
Min Temperature 20 °F 21 °F -12 °F (1968)
Degree Days  
Heating Degree Days 34 37  
Month to date heating degree days 34 37  
Since 1 July heating degree days 2255 2113  
Cooling Degree Days 0 0  
Month to date cooling degree days 0 0  
Year to date cooling degree days 0 0  
Moisture  
Dew Point 23 °F    
Average Humidity 72    
Maximum Humidity 85    
Minimum Humidity 59    
Precipitation  
Precipitation T in 0.10 in 3.81 in (1890)
Month to date precipitation T 0.10  
Year to date precipitation T 0.10  
Snow  
Snow T in 0.30 in 2.30 in (1970)
Month to date snowfall T 0.3  
Since 1 July snowfall 8.9 8.3  
Snow Depth 0.00 in    
Sea Level Pressure  
Sea Level Pressure 30.15 in    
Wind  
Wind Speed 6 mph (East)    
Max Wind Speed 13 mph    
Max Gust Speed 15 mph    
Visibility 10 miles    
Events Snow    
T = Trace of Precipitation, MM = Missing Value Source: NWS Daily Summary

Daily Weather History Graph

Daily Weather History Graph

Search for Another Location

Airport or City:

Trip Planner

Search our weather history database for the weather conditions in past years. The results will help you decide how hot, cold, wet, or windy it might be!

Date:

Astronomy

Jan. 01, 2014 Rise Set
Actual Time 8:06 AM EST 5:31 PM EST
Civil Twilight 7:35 AM EST 6:01 PM EST
Nautical Twilight 7:02 AM EST 6:35 PM EST
Astronomical Twilight 6:29 AM EST 7:08 PM EST
Moon 7:56 AM EST (1/1) 6:15 PM EST (1/1)
Length of Visible Light 10h 25m
Length of Day
9h 25m
New Moon, 0% of the Moon is Illuminated
Jan 1
New Moon
Jan 7
First Quarter
Jan 15
Full
Jan 24
Last Quarter
Jan 30
New

Hourly Weather History & Observations

Time (EST) Temp. Windchill Dew Point Humidity Pressure Visibility Wind Dir Wind Speed Gust Speed Precip Events Conditions
12:54 AM 28.0 °F 24.2 °F 18.0 °F 66% 30.26 in 10.0 mi SE 3.5 mph - N/A   Partly Cloudy
1:54 AM 26.1 °F 21.9 °F 17.1 °F 69% 30.25 in 10.0 mi SE 3.5 mph - N/A   Partly Cloudy
2:54 AM 24.1 °F 16.0 °F 17.1 °F 75% 30.24 in 10.0 mi SE 6.9 mph - N/A   Partly Cloudy
3:54 AM 24.1 °F - 18.0 °F 77% 30.24 in 10.0 mi Calm Calm - N/A   Clear
4:54 AM 23.0 °F 17.0 °F 18.0 °F 81% 30.22 in 10.0 mi East 4.6 mph - N/A   Clear
5:54 AM 21.0 °F 14.6 °F 17.1 °F 85% 30.22 in 10.0 mi ENE 4.6 mph - N/A   Clear
6:54 AM 21.0 °F 13.4 °F 17.1 °F 85% 30.21 in 10.0 mi ESE 5.8 mph - N/A   Partly Cloudy
7:54 AM 21.9 °F 14.5 °F 18.0 °F 85% 30.21 in 10.0 mi ESE 5.8 mph - N/A   Partly Cloudy
8:54 AM 24.1 °F 18.2 °F 19.9 °F 84% 30.20 in 9.0 mi East 4.6 mph - N/A   Scattered Clouds
9:54 AM 30.0 °F 23.2 °F 24.1 °F 79% 30.20 in 10.0 mi SSE 6.9 mph - N/A   Mostly Cloudy
10:54 AM 34.0 °F 28.0 °F 26.1 °F 73% 30.19 in 10.0 mi South 6.9 mph - N/A   Mostly Cloudy
11:54 AM 37.0 °F 31.0 °F 27.0 °F 67% 30.18 in 10.0 mi WSW 8.1 mph - N/A   Mostly Cloudy
12:54 PM 37.9 °F 32.1 °F 27.0 °F 65% 30.15 in 10.0 mi SW 8.1 mph - N/A   Mostly Cloudy
1:54 PM 39.9 °F 35.1 °F 27.0 °F 60% 30.12 in 10.0 mi WSW 6.9 mph - N/A   Mostly Cloudy
2:54 PM 39.9 °F 35.8 °F 27.0 °F 60% 30.10 in 10.0 mi WSW 5.8 mph - N/A   Overcast
3:54 PM 39.9 °F 37.8 °F 27.0 °F 60% 30.10 in 10.0 mi West 3.5 mph - N/A   Overcast
4:54 PM 39.0 °F - 27.0 °F 62% 30.09 in 10.0 mi Calm Calm - N/A   Overcast
5:54 PM 37.0 °F 34.5 °F 27.0 °F 67% 30.08 in 10.0 mi East 3.5 mph - N/A   Overcast
6:54 PM 32.0 °F 24.2 °F 26.1 °F 79% 30.10 in 10.0 mi NNE 9.2 mph - N/A   Overcast
7:54 PM 30.9 °F 22.8 °F 25.0 °F 79% 30.09 in 10.0 mi NE 9.2 mph - N/A   Overcast
8:54 PM 30.9 °F 25.2 °F 25.0 °F 79% 30.09 in 10.0 mi NE 5.8 mph - N/A   Overcast
9:54 PM 30.0 °F 24.1 °F 25.0 °F 82% 30.06 in 10.0 mi NE 5.8 mph - N/A   Overcast
10:54 PM 28.9 °F 21.9 °F 25.0 °F 85% 30.04 in 10.0 mi NE 6.9 mph - N/A   Overcast
11:43 PM 28.4 °F 21.2 °F 24.8 °F 86% 30.01 in 2.5 mi NNE 6.9 mph - 0.00 in Snow Light Snow
11:54 PM 28.0 °F 20.0 °F 25.0 °F 88% 30.03 in 1.8 mi NNE 8.1 mph - 0.00 in Snow Light Snow